#timestamp,LO_Frequency,Hit,StdDev 
1594530015.3,286047001.4,N
1594530035.2,286047003.3,N
1594530055.9,286047003.5,N
1594530075.7,286047003.7,N
1594530095.6,286047004.8,N
1594530115.4,286047005.7,N
1594530135.3,286047005.2,N
1594530155.1,286047005.5,N
1594530156.0,286047005.5,N
1594530175.8,286047005.2,N
1594530195.7,286047005.2,N
1594530215.5,286047005.5,N
1594530235.3,286047003.6,N
1594530255.2,286047001.6,N
1594530275.0,286047002.7,N
1594530275.9,286047002.7,N
1594530295.8,286046999.5,N
1594530315.6,286046995.4,N
1594530335.4,286046997.6,N
1594530355.3,286046995.4,N
1594530375.1,286046997.4,N
1594530395.9,286046995.7,N
1594530415.7,286046994.0,N
1594530435.5,286046996.0,N
1594530455.4,286046994.2,N
1594530475.2,286046994.2,N
1594530495.1,286046994.8,N
1594530496.0,286046994.8,N
1594530515.8,286046991.8,N
1594530535.6,286046991.0,N
1594530555.5,286046991.4,N
1594530575.3,286046990.6,N
1594530595.1,286046990.4,N
1594530615.9,286046989.7,N
1594530635.7,286046989.0,N
1594530655.6,286046987.0,N
1594530675.4,286046987.9,N
1594530695.2,286046988.4,N
1594530715.1,286046988.2,N
1594530716.0,286046988.2,N
1594530735.8,286046987.1,N
1594530755.6,286046985.8,N
1594530775.5,286046984.1,Y
1594530795.3,286046990.7,P
1594530815.2,286046990.1,P
1594530835.9,286046990.1,P
1594530855.7,286046990.1,Y
1594530875.6,286047003.6,P
1594530895.4,286047004.1,N
1594530915.2,286047001.7,N
1594530935.1,286047002.8,N
1594530936.0,286047002.8,N
1594530955.8,286047000.2,N
1594530975.7,286047002.3,N
1594530995.5,286047001.1,N
1594531015.3,286046998.7,N
1594531035.2,286046998.5,N
1594531055.0,286046998.2,N
1594531055.9,286046998.2,N
1594531075.8,286046998.5,N
1594531095.6,286046996.7,N
1594531115.4,286046998.0,N
1594531135.3,286046995.3,N
1594531155.1,286046995.8,N
1594531175.8,286046996.3,N
1594531195.7,286046996.3,N
1594531215.5,286046995.3,N
1594531235.4,286046999.2,N
1594531255.2,286047000.5,N
1594531275.0,286046999.7,N
1594531275.9,286046999.7,N
1594531295.8,286047002.3,N
1594531315.6,286047002.7,N
1594531335.4,286047001.6,N
1594531355.3,286047001.7,N
1594531375.1,286047000.7,N
1594531395.9,286046999.0,N
1594531415.7,286046995.7,N
1594531435.5,286046996.3,N
1594531455.4,286046993.4,N
1594531475.2,286046995.9,N
1594531495.0,286046994.8,N
1594531495.9,286046994.8,N
1594531515.8,286046994.5,N
1594531535.6,286046992.6,N
1594531555.5,286046991.0,Y
1594531575.3,286046993.2,P
1594531595.1,286046988.5,P
1594531615.9,286046990.3,N
1594531635.7,286046988.7,Y
1594531655.6,286046996.7,P
1594531675.4,286046997.6,N
1594531695.2,286046996.7,N
1594531715.1,286046997.6,N
1594531716.0,286046997.6,N
1594531735.8,286046995.0,N
1594531755.6,286046995.2,N
1594531775.5,286046995.8,N
1594531795.3,286046995.9,N
1594531815.2,286046995.6,N
1594531835.9,286046995.3,Y
1594531855.7,286047002.1,P
1594531875.6,286046999.7,N
1594531895.4,286047000.1,N
1594531915.2,286047001.6,N
1594531935.1,286047001.3,N
1594531936.0,286047001.3,N
1594531955.8,286047002.3,N
1594531975.7,286046999.9,N
1594531995.5,286047000.1,N
1594532015.3,286046999.8,N
1594532035.2,286047000.4,N
1594532055.0,286046999.9,N
1594532055.9,286046999.9,N
1594532075.7,286047000.7,N
1594532095.6,286047001.1,N
1594532115.4,286046998.5,N
1594532135.3,286047000.9,N
1594532155.1,286046996.6,N
1594532156.0,286046996.6,N
1594532175.8,286046999.2,N
1594532195.7,286046999.6,N
1594532215.5,286046999.4,N
1594532235.4,286046996.6,N
1594532255.2,286046997.5,N
1594532275.0,286046993.4,Y
1594532275.9,286046993.4,P
1594532295.8,286046994.6,N
1594532315.6,286046993.2,N
1594532335.5,286046992.6,N
1594532355.3,286046992.8,N
1594532375.1,286046991.2,Y
1594532395.9,286046998.0,P
1594532415.7,286046997.4,N
1594532435.5,286046996.5,N
1594532455.4,286046999.0,N
1594532475.2,286046999.2,N
1594532495.1,286046999.2,N
1594532496.0,286046999.2,N
1594532515.8,286046996.7,N
1594532535.6,286046996.9,N
1594532555.5,286046997.3,N
1594532575.3,286046998.4,N
1594532595.1,286046998.5,N
1594532615.9,286046996.5,N
1594532635.7,286046997.0,N
1594532655.6,286046995.7,Y
1594532675.4,286046997.6,P
1594532695.2,286046997.4,P
1594532715.1,286046997.7,P
1594532716.0,286046997.7,Y
1594532735.8,286046998.6,P
1594532755.7,286047001.1,N
1594532775.5,286046998.8,N
1594532795.3,286046999.4,N
1594532815.2,286046999.2,N
1594532835.0,286046996.5,Y
1594532835.9,286046996.5,P
1594532855.7,286046996.9,N
1594532875.6,286046999.3,N
1594532895.4,286047000.8,N
1594532915.3,286046998.6,N
1594532935.1,286046999.6,N
1594532955.8,286046997.8,N
1594532975.7,286046993.7,Y
1594532995.5,286046995.3,P
1594533015.4,286046995.9,N
1594533035.2,286046995.9,N
1594533055.0,286046996.1,Y
1594533055.9,286046996.1,P
1594533075.8,286046998.9,P
1594533095.6,286046999.6,N
1594533115.4,286046998.2,N
1594533135.3,286046999.0,N
1594533155.1,286046999.4,N
1594533175.9,286046996.8,N
1594533195.7,286046997.3,N
1594533215.5,286046996.6,N
1594533235.4,286046999.4,N
1594533255.2,286046996.6,N
1594533275.1,286046999.0,N
1594533276.0,286046999.0,N
1594533295.8,286046996.5,N
1594533315.6,286046999.2,N
1594533335.5,286046997.5,N
1594533355.3,286046999.6,N
1594533375.1,286046996.9,N
1594533395.9,286046998.2,N
1594533415.7,286047000.8,N
1594533435.6,286047000.2,N
1594533455.4,286047000.5,N
1594533475.2,286047000.6,N
1594533495.1,286046998.1,N
1594533496.0,286046998.1,N
1594533515.8,286046998.6,N
1594533535.6,286047001.2,N
1594533555.5,286047000.9,N
1594533575.3,286047001.0,N
1594533595.2,286047000.3,N
